Location: Unspecified
(0.0000°N, 0.0000°E)
Time: 19:51:42
(UTC+00:00)

STARLINK-1021 - Pass Details

Date: 17 January 2020
Orbit: 425 x 427 km, 53.0° (Epoch: 26 February)

Event Time Altitude Azimuth Distance (km) Brightness Sun altitude
Rises 05:17:07 0° 223° (SW) 2,377 6.7 -12.3°
Reaches altitude 10° 05:19:15 10° 229° (SW) 1,510 5.6 -11.8°
Maximum altitude 05:22:32 47° 304° (NW) 565 3.3 -11.0°
Drops below altitude 10° 05:25:48 10° 19° (NNE) 1,504 5.8 -10.3°
Sets 05:27:56 0° 25° (NNE) 2,366 6.9 -9.8°
